Hourly Data Report for October 16, 2013

All times are specified in Local Standard Time (LST). Add 1 hour to adjust for Daylight Saving Time where and when it is observed.

IQALUIT CLIMATE
NUNAVUT

63°44'50.000" N
68°32'40.000" W
33.50 m
2402592
71321
XFB

Download Data

Hourly Data (October 2013)
Hourly Data Report for October 16, 2013
Temp Definition
°C
Dew Point Temp Definition
°C
Rel Hum Definition
%
Wind Dir Definition
10's deg

Wind Spd Definition
km/h
Visibility Definition
km
Stn Press Definition
kPa
Hmdx Definition


Wind Chill Definition


Weather Definition


TIME
00:00 1.1 0.5 96 15 9   101.13     LegendNANA
01:00 1.0 0.4 96 14 13   101.16     LegendNANA
02:00 1.0 0.3 95 12 9   101.16     LegendNANA
03:00 1.0 0.3 95 15 15   101.16     LegendNANA
04:00 1.1 0.3 94 15 19   101.16     LegendNANA
05:00 0.8 0.2 96 16 15   101.21     LegendNANA
06:00 0.4 -0.2 96 15 19   101.21     LegendNANA
07:00 0.4 -0.4 94 14 17   101.22     LegendNANA
08:00 0.9 -0.2 92 14 17   101.24     LegendNANA
09:00 1.3 -0.2 90 15 15   101.24     LegendNANA
10:00 1.7 0.0 88 15 22   101.23     LegendNANA
11:00 2.0 -0.8 82 17 15   101.23     LegendNANA
12:00 1.5 -0.8 85 16 19   101.24     LegendNANA
13:00 1.4 -0.4 88 15 19   101.25     LegendNANA
14:00 1.3 -0.3 89 16 19   101.26     LegendNANA
15:00 1.1 -0.4 90 14 19   101.28     LegendNANA
16:00 0.9 -0.3 92 16 13   101.29     LegendNANA
17:00 0.9 -0.5 90 13 15   101.31     LegendNANA
18:00 0.6 -0.6 92 15 15   101.32     LegendNANA
19:00 0.6 -1.4 86 13 15   101.33     LegendNANA
20:00 0.4 -1.4 88 13 13   101.32     LegendNANA
21:00 0.3 -0.9 92 14 13   101.30     LegendNANA
22:00 0.3 -1.2 90 14 11   101.29     LegendNANA
23:00 0.4 -1.8 85 13 17   101.29     LegendNANA

Notes on Data Quality.

Legend

  • E = Estimated
  • M = Missing
  • NA = Not Available
  • ‡ = Partner data that is not subject to review by the National Climate Archives
Date modified: